모두
Lilydale Airport (Lilydale, Victoria) YLIL 기상
There is no TAF data available at YLIL or any nearby airports.
There is no METAR data available at YLIL. Showing METAR data for YCEM (4 mi 동남).
최근 YCEM METAR 이력(YLIL에 대한 데이터 없음)
| Date | Time (AEST) | Flight Rules | Wind Dir. | Speed | Type | Height AGL (ft) | Visibility | Temp (°C) | Temp (°F) | Dew Point (°C) | Dew Point (°F) | Rel. Humid. | Pressure | Density Altitude | Remarks |
|---|---|---|---|---|---|---|---|---|---|---|---|---|---|---|---|
| 06-5월 | 11:00 | n/a | 10° | 9 kt | Missing | 15° | 59° | 7° | 44° | 59% | 1020 mb | 132 ft | |||
| 06-5월 | 10:00 | n/a | 360° | 6 kt | Missing | 14° | 57° | 7° | 44° | 63% | 1020 mb | 12 ft | |||
| 06-5월 | 09:00 | n/a | 360° | 5 kt | Missing | 14° | 57° | 8° | 46° | 67% | 1021 mb | -17 ft | |||
| 06-5월 | 08:00 | n/a | 360° | 4 kt | Missing | 12° | 53° | 8° | 46° | 76% | 1021 mb | -257 ft | |||
| 06-5월 | 07:00 | n/a | 350° | 3 kt | Missing | 12° | 53° | 8° | 46° | 76% | 1021 mb | -257 ft | |||
| 06-5월 | 06:00 | n/a | 360° | 3 kt | Missing | 12° | 53° | 8° | 46° | 76% | 1021 mb | -257 ft | |||
| 06-5월 | 05:00 | n/a | Calm | Missing | 11° | 51° | 10° | 50° | 94% | 1021 mb | -377 ft | ||||
| 06-5월 | 04:00 | n/a | Calm | Missing | 11° | 51° | 10° | 50° | 94% | 1021 mb | -377 ft | ||||
| 06-5월 | 03:00 | n/a | Calm | Missing | 11° | 51° | 10° | 50° | 94% | 1021 mb | -377 ft | ||||
| 06-5월 | 02:00 | n/a | Calm | Missing | 11° | 51° | 10° | 50° | 94% | 1022 mb | -407 ft | ||||
| 06-5월 | 01:00 | n/a | Calm | Missing | 11° | 51° | 10° | 50° | 94% | 1022 mb | -407 ft | ||||
| 06-5월 | 00:00 | n/a | Calm | Missing | 12° | 53° | 10° | 50° | 88% | 1022 mb | -287 ft | ||||
| 05-5월 | 23:00 | n/a | Calm | Missing | 12° | 53° | 10° | 50° | 88% | 1022 mb | -287 ft | ||||
| 05-5월 | 22:00 | n/a | Calm | Missing | 13° | 55° | 9° | 48° | 77% | 1023 mb | -196 ft | ||||
| 05-5월 | 21:00 | n/a | Calm | Missing | 13° | 55° | 9° | 48° | 77% | 1023 mb | -196 ft | ||||
| 05-5월 | 20:00 | n/a | 40° | 2 kt | Missing | 13° | 55° | 9° | 48° | 77% | 1023 mb | -196 ft | |||
| 05-5월 | 19:00 | n/a | 50° | 2 kt | Missing | 13° | 55° | 9° | 48° | 77% | 1022 mb | -167 ft | |||
| 05-5월 | 18:00 | n/a | Calm | Missing | 14° | 57° | 9° | 48° | 72% | 1022 mb | -47 ft | ||||
| 05-5월 | 17:00 | n/a | Calm | Missing | 14° | 57° | 8° | 46° | 67% | 1021 mb | -17 ft | ||||
| 05-5월 | 16:00 | n/a | 350° | 3 kt | Missing | 15° | 59° | 7° | 44° | 59% | 1021 mb | 103 ft | |||
| 05-5월 | 15:00 | n/a | 320° | 4 kt | Missing | 15° | 59° | 7° | 44° | 59% | 1020 mb | 132 ft | |||
| 05-5월 | 14:00 | n/a | 290° | 6 kt | Missing | 15° | 59° | 7° | 44° | 59% | 1020 mb | 132 ft | |||
| 05-5월 | 13:00 | n/a | 250° | 9 kt | Missing | 15° | 59° | 8° | 46° | 63% | 1020 mb | 132 ft | |||
| 05-5월 | 12:00 | n/a | 270° | 8 kt | Missing | 15° | 59° | 8° | 46° | 63% | 1020 mb | 132 ft |
로그인
| 귀하의 브라우저는 지원되지 않습니다.. 브라우저를 업그레이드하세요 |
